Terminal Aerodrome Forecast
Issued by NWS Northern Indiana

Home | Current Version | Previous Version | Text Only | Print | Product List | Glossary On
Versions: 1 2 3 4 5 6 7 8 9 10 11 12 13 14 15 16 17 18 19
275
FTUS43 KIWX 221817 AAA
TAFFWA
TAF AMD
KFWA 221817Z 2218/2318 25012G20KT P6SM SCT025 OVC050
      TEMPO 2218/2220 6SM -RA BKN025
     FM222200 26017KT P6SM BKN070
     FM230300 28008KT P6SM SCT250
     FM230600 VRB03KT P6SM SCT250
     FM231300 29012KT P6SM SCT250=

USA.gov is the U.S. government's official web portal to all federal, state and local government web resources and services.